Back to catalog

STARLINK-37979

AliveCommunicationsSSO
NORAD 69689·PAYLOAD·🇺🇸 United States

Launched Jun 25, 2026 from Vandenberg Space Force Base

Loading…

Next Passes (next 24 hours)

TLE

FreshSource: CelesTrak SupGP

Epoch: Sep 14, 2026, 22:46 UTC

1 69689C 26145N   26257.94909722  .00085438  00000+0  26530-2 0  2572
2 69689  97.2843 104.7030 0001717  93.8203 251.7363 15.33385838    14

Track STARLINK-37979 in real time with AllMySat

Download on the App Store